Location: Unspecified
(0.0000°N, 0.0000°E)
Time: 05:57:17

Vanguard 2 Rocket - Pass Details

Date: 08 December 2017
Orbit: 554 x 3327 km, 32.9° (Epoch: 19 March)

Event Time Altitude Azimuth Distance (km) Brightness Sun altitude
Rises 23:20:20 0° 309° (NW) 6,886 11.3 -65.9°
Enters shadow 23:20:41 - 310° (NW) 6,846 11.3 -65.9°
Reaches altitude 10° 23:27:29 10° 326° (NW) 6,153 - -66.4°
Maximum altitude 23:39:56 19° 5° (N) 5,503 - -67.0°
Drops below altitude 10° 23:51:50 10° 44° (NE) 5,878 - -67.2°
Sets 23:58:20 0° 60° (ENE) 6,496 - -67.1°
